Weather in Ozerpakh

Russia / Khabarovsk Krai     53°02′33″N   141°14′52″E
temp.,
°C
wind,
m/s
gust,
m/s
humid.,
%
clouds,
%
prec.,
mm/h
press.,
hPa
HPBL,
m
27 february, sat
sat2701:00−20nw339455 0.0 102721
04:00−22wnw339328 0.0 102722
07:00−22wnw33890 0.0 102721
10:00−19w12850 0.0 102828
13:00−16sse23880 0.0 1026126
16:00−16sse33970 0.0 102469
19:00−18ese119982 0.0 102420
22:00−17e229990 0.0 102221
28 february, sun
sun2801:00−16ese3397100 0.0 101961
04:00−13sse4795100 0.4 1014286
07:00−12s3495100 1.4 1011240
10:00−11nw3491100 2.1 1010205
13:00−9wnw477785 0.0 1010836
16:00−11wnw588390 0.1 1010356
19:00−16nw349198 0.1 101363
22:00−20wnw798974 0.1 1014136
1 march, mon
mon101:00−21wnw699067 0.0 1015144
04:00−20wnw689080 0.0 1016205
07:00−19wnw5891100 0.1 1018205
10:00−17wnw71276100 0.1 1019593
13:00−17wnw81172100 0.0 1020909
16:00−18wnw6117593 0.0 1021761
19:00−22w348359 0.0 102321
22:00−23w338871 0.0 102321
2 march, tue
tue201:00−24wnw348624 0.0 102321
04:00−25w448212 0.0 102427
07:00−26wsw33770 0.0 102619
10:00−23w23780 0.0 102683
13:00−19w456627 0.0 10261068
16:00−19w337136 0.0 1026133
19:00−21wsw3377100 0.0 102721
22:00−25w238263 0.0 102720
3 march, wed
wed301:00−26w33830 0.0 102619
04:00−26wnw34820 0.0 102520
07:00−27w34800 0.0 102520
10:00−23wnw33780 0.0 102470
13:00−18w14570 0.0 1021322
16:00−18sse34750 0.0 101951
19:00−21sse22810 0.0 101720
22:00−22ssw118910 0.0 101621